map of ZAM home
Great Circle Mapper logo
ZAM - Airport
Location
City:  Zamboanga, Philippines
Name:Zamboanga International Airport
ICAO / IATA:RPMZ / ZAM

Details
Type:Airport (Aerodrome, Airfield)
Use:Public/Civil, International (customs port of entry)
Latitude:655'21"N (6.922419)
Longitude:12203'35"E (122.059633)
Datum:WGS 1984
Elevation:33 ft (10 m)
Runways:1
Longest:8560 × 144 ft (2609 × 44 m), paved

Time
Time Zone:UTC+8
Local Time:

Weather
METAR:RPMZ 021800Z 00000KT 9999 FEW018 SCT300 25/23 Q1011 RMK A2985
TAF:RPMZ 021700Z 0218/0318 24006KT 9999 FEW018 SCT100 BKN300
TEMPO 0218/0224 00000KT 9000 -SHRA FEW017CB SCT018 BKN100

Related Locations
Nearby:
Farthest:JCR: 12382 mi / 19927 km
Jacareacanga, PA, BR

Find:

   beyond  
but within

Other Information
Maps:
NOTAMs:
Links:
Sources:

  
flag of Philippines   

Sectional Chart

Flight Planning
at skyvector.com

Satellite Image

Google Maps Satellite View

 

Copyright © 2004-2014 Karl L. Swartz. All rights reserved.
The Great Circle Mapper name and logo are trademarks of the Great Circle Mapper.
All other trademarks mentioned herein belong to their respective owners.
Please see credits for attibutions and further copyright information.

  Follow gcmap on Facebook Follow gcmap on Twitter

hCard Microformat

Geo Microformat